Regional Weather Roundup
Issued by NWS

Home | Current Version | Previous Version | Graphics & Text | Print | Product List | Glossary On
Versions: 1 2 3 4 5 6 7 8 9 10 11 12 13 14 15 16 17 18 19 20 21 22 23 24 25 26 27 28 29 30 31 32 33 34 35 36 37 38 39 40 41 42 43 44 45 46 47 48 49 50
000
ASUS45 KSLC 011610
RWRUT

UTAH REGIONAL WEATHER ROUNDUP
NATIONAL WEATHER SERVICE SALT LAKE CITY UT
1000 AM MDT MON SEP 01 2014

UTZ001>011-023>025-011700-

NORTHERN UTAH

CITY           SKY/WX    TMP DP  RH WIND       PRES   REMARKS
HILL AFB       SUNNY     62  37  39 E8        30.11R
LOGAN          SUNNY     57  45  64 CALM      30.10S
OGDEN          SUNNY     65  34  31 VRB3      30.09R
PROVO AIRPORT  SUNNY     63  41  45 E3        30.12R
SALT LAKE CITY MOSUNNY   66  42  41 E3        30.08R
VERNAL         SUNNY     61  38  42 SE3       30.11S
WENDOVER       SUNNY     68  37  32 SE5       30.10R
HEBER CITY     SUNNY     54  41  62 CALM      30.15S
WEST JORDAN    SUNNY     66  46  48 CALM      30.10R

$$

UTZ012>022-026-027-011700-

SOUTHERN UTAH

CITY           SKY/WX    TMP DP  RH WIND       PRES   REMARKS
BRYCE CANYON   SUNNY     70  34  26 W10       30.25R
CEDAR CITY     SUNNY     69  35  28 N5        30.12R
MILFORD        SUNNY     68  39  34 CALM      30.10R
MOAB/CYNLANDS  SUNNY     74  35  24 E3        30.03S
PRICE          SUNNY     65  35  33 SE6       30.13S
ST GEORGE      SUNNY     77  39  25 SW5       29.97R
KANAB            N/A     79  39  24 SW8       30.12S

$$

REGIONAL REPORTS     COLORADO/ARIZONA

CITY           SKY/WX    TMP DP  RH WIND       PRES   REMARKS
CRAIG, CO      SUNNY     62  43  49 NE5       30.16S
GRAND JUNCTION SUNNY     67  38  34 S3        30.08S
RIFLE          SUNNY     60  44  55 CALM      30.14S
MONTROSE       SUNNY     65  37  35 W5        30.16R
CORTEZ         SUNNY     70  41  34 VRB3      30.15S
PAGE, AZ       SUNNY     79  33  19 N5        30.03S
GRAND CANYON   SUNNY     73  43  33 SW12      30.24R
KINGMAN        SUNNY     87  46  24 SE10      29.98S
FLAGSTAFF      SUNNY     70  43  37 VRB5      30.27R

$$

REGIONAL REPORTS    NEVADA/IDAHO/WYOMING

CITY           SKY/WX    TMP DP  RH WIND       PRES   REMARKS
LAS VEGAS, NV  SUNNY     87  32  14 SW8       29.83R
ELY            SUNNY     64  36  35 S7        30.18S
ELKO           SUNNY     61  35  37 E3        30.15R
POCATELLO, ID  SUNNY     61  40  45 SW15      30.12R
BURLEY         SUNNY     61  43  51 W10G17    30.10R
EVANSTON, WY   MOSUNNY   58  36  43 SW13      30.18S
ROCK SPRINGS   SUNNY     58  32  37 W13       30.14S

$$



USA.gov is the U.S. government's official web portal to all federal, state and local government web resources and services.